Location: Ferchesar
(52.6477°N, 12.4298°E)
Time: 17:06:22
(UTC+01:00)

Tiros 1 - Pass Details

Date: 09 December 2021
Orbit: 629 x 664 km, 48.4° (Epoch: 22 January)

Event Time Altitude Azimuth Distance (km) Brightness Sun altitude
Rises 16:52:01 0° 217° (SW) 2,908 11.9 -8.0°
Reaches altitude 10° 16:54:40 10° 204° (SSW) 2,006 10.5 -8.4°
Maximum altitude 16:58:21 24° 151° (SSE) 1,308 8.7 -8.9°
Drops below altitude 10° 17:02:06 10° 97° (E) 2,025 9.2 -9.4°
Enters shadow 17:02:30 - 94° (E) 2,152 9.3 -9.4°
Sets 17:04:46 0° 84° (E) 2,942 - -9.7°
